Flag for Poland Weather past 2 weeks in Lidzbark Warmiński, Poland

Now
55 °F

Cool.


Feels Like: 55 °F
Forecast: 47 / 73 °F
Wind: 2 mph from East

Location: Ketrzyn

Current Time: Apr 27, 2015 at 12:10:12 AM

Latest Report: Apr 26, 2015 at 10:00 PM


Visibility: 7 mi

Pressure: 29.75 "Hg

Humidity: 80%

Dew point: 49 °F

Location of Lidzbark WarmińskiLocation

Historic Weather in Lidzbark Warmiński — Graph

°F

Lidzbark Warmiński temperature yesterday

Maximum temperature yesterday: 63 °F (at 9:00 AM)
Minimum temperature yesterday: 55 °F (at 6:00 AM)
Average temperature yesterday: 58 °F

Past Weeks' High & Low Weather Summary

 TemperatureHumidityPressure
High71 °F (Apr 25, 4:00 PM)96% (Apr 15, 4:00 AM)30.25 "Hg (Apr 15, 4:00 AM)
Low32 °F (Apr 22, 6:00 AM)29% (Apr 25, 4:00 PM)29.56 "Hg (Apr 16, 1:00 AM)
Average47 °F68%29.93 "Hg
* Reported Apr 11 10:00 PM — Apr 26 10:00 PM, Lidzbark Warmiński, Weather by CustomWeather, © 2015

Note: Actual official high and low records may vary slightly from our data, if they occured in-between our weather recording intervals... More about our weather records

Advertising

Lidzbark Warmiński weather history for previous 24 hours

 ConditionsComfort  
Time TempWeatherWind HumidityBarometerVisibility
10:00 PM
Sun, Apr 26
55 °FCool.2 mph80%29.75 "Hg7 mi
9:00 PM56 °FFog.1 mph77%29.75 "Hg6 mi
8:00 PM58 °FCool.1 mph70%29.75 "Hg7 mi
7:00 PM60 °FCool.1 mph67%29.74 "Hg7 mi
6:00 PM61 °FCool.3 mph64%29.74 "Hg11 mi
5:00 PM62 °FCool.2 mph62%29.74 "Hg14 mi
4:00 PM61 °FCool.3 mph65%29.75 "Hg11 mi
3:00 PM59 °FCool.3 mph75%29.75 "Hg6 mi
2:00 PM59 °FDrizzle. Cloudy.2 mph78%29.75 "Hg5 mi
1:00 PM59 °FLight rain. Cloudy.3 mph71%29.75 "Hg5 mi
12:00 PM62 °FCool.6 mph60%29.74 "Hg11 mi
11:00 AM62 °FMild.5 mph57%29.72 "Hg12 mi
10:00 AM61 °FRefreshingly cool.5 mph55%29.72 "Hg12 mi
9:00 AM63 °FMild.6 mph53%29.70 "Hg11 mi
8:00 AM58 °FCool.2 mph61%29.70 "Hg12 mi
7:00 AM56 °FCool.2 mph64%29.69 "Hg14 mi
6:00 AM55 °FCool.2 mph62%29.67 "Hg12 mi
5:00 AM56 °FRefreshingly cool.5 mph59%29.67 "Hg12 mi
4:00 AM55 °FCool.1 mph60%29.68 "Hg13 mi
3:00 AM55 °FCool.1 mph59%29.70 "Hg14 mi
2:00 AM55 °FRefreshingly cool.2 mph59%29.71 "Hg12 mi
1:00 AM58 °FRefreshingly cool.2 mph52%29.72 "Hg16 mi
12:00 AM57 °FRefreshingly cool.2 mph55%29.75 "Hg16 mi
Weather by CustomWeather, © 2015

See weather overviewHow to use our weather pages